Regional Weather Roundup
Issued by NWS Upton, NY

Current Version | Previous Version | Text Only | Print | Product List | Glossary On
Versions: 1 2 3 4 5 6 7 8 9 10 11 12 13 14 15 16 17 18 19 20 21 22 23 24 25 26 27
000
ASUS41 KOKX 220405
RWROKX

REGIONAL WEATHER ROUNDUP
NATIONAL WEATHER SERVICE NEW YORK NY
1200 AM EDT TUE APR 22 2014

NOTE: "FAIR" INDICATES FEW OR NO CLOUDS BELOW 12,000 FEET WITH NO
SIGNIFICANT WEATHER AND/OR OBSTRUCTIONS TO VISIBILITY.

NYZ071-072-176-178-NJZ106-104-220500-
NEW YORK CITY METRO AREA


CITY           SKY/WX    TMP DP  RH WIND       PRES   REMARKS
CENTRAL PARK   CLEAR     52  40  63 CALM      29.91F
LAGUARDIA APRT MOCLDY    51  39  63 S6        29.89F
KENNEDY INTL   MOCLDY    48  43  82 S5        29.91F
NEWARK/LIBERTY PTCLDY    52  42  69 S3        29.89F
TETERBORO      CLEAR     53  40  61 S3        29.88F
$$

NYZ177-179-078>081-220500-
LONG ISLAND NEW YORK

CITY           SKY/WX    TMP DP  RH WIND       PRES   REMARKS
FARMINGDALE    CLEAR     47  42  83 SW5       29.90F
ISLIP          MOCLDY    48  42  80 S5        29.88F
SHIRLEY        CLEAR     47  43  86 S5        29.91F
WESTHAMPTON    CLEAR     35  33  92 CALM      29.91F
MONTAUK POINT    N/A     47  43  86 CALM      29.91F
$$

NYZ052-065-067-220500-
HUDSON VALLEY

CITY           SKY/WX    TMP DP  RH WIND       PRES   REMARKS
WHITE PLAINS   CLEAR     46  39  76 SE3       29.88F
NEWBURGH       CLEAR     54  41  62 CALM      29.86F
MONTGOMERY     CLEAR     46  37  71 CALM      29.84F
POUGHKEEPSIE   CLEAR     53  37  54 SE3       29.84F
ALBANY         CLOUDY    61  23  23 S10       29.80F
$$

NJZ001-105-106-008-010-013-015-019>022-104-220500-
NEW JERSEY

CITY           SKY/WX    TMP DP  RH WIND       PRES   REMARKS
NEWARK/LIBERTY PTCLDY    52  42  69 S3        29.89F
TETERBORO      CLEAR     53  40  61 S3        29.88F
CALDWELL       CLEAR     48  41  76 CALM      29.89F
MORRISTOWN     PTCLDY    46  43  87 CALM      29.88F
SOMERVILLE     PTCLDY    49  41  74 CALM      29.87S
LINDEN         FAIR      53  44  70 CALM      29.91S
SUSSEX         PTCLDY    49  31  49 CALM      29.86F
ANDOVER          N/A     46  39  76 CALM      29.87F
TRENTON        PTCLDY    51  43  74 S8        29.89S
MILLVILLE      CLEAR     42  40  92 CALM      29.91F
ATLANTIC CITY  CLEAR     47  43  86 S3        29.91F
WRIGHTSTOWN    CLEAR     46  42  85 S7        29.88F
TOMS RIVER     CLEAR     43  37  81 CALM      29.91F
BELMAR         CLEAR     48  39  71 SW5       29.90F
$$

PAZ047>061-062-071-220500-
EASTERN PENNSYLVANIA

CITY           SKY/WX    TMP DP  RH WIND       PRES   REMARKS
PHILADELPHIA   PTCLDY    53  44  71 S9        29.92S
ALLENTOWN      MOCLDY    51  29  42 CALM      29.87F
SCRANTON       CLOUDY    57  20  23 SW7       29.84F
$$

CTZ002-004>006-009-010-012-RIZ004-006-007-MAZ004-011-015-220500-
SOUTHERN NEW ENGLAND
 IN CT

CITY           SKY/WX    TMP DP  RH WIND       PRES   REMARKS
BRADLEY INTL   PTCLDY    50  39  66 S9        29.86F
HARTFORD       CLEAR     49  40  71 S7        29.88F
DANBURY        CLEAR     49  40  71 SW5       29.88F
WTRBRY/OXFORD  CLEAR     46  37  71 SW6       29.90F
BRIDGEPORT     CLEAR     49  42  77 SW6       29.89F
MERIDEN        CLEAR     47  39  74 S3        29.89F
NEW HAVEN      CLEAR     48  42  80 S3        29.89F
CHESTER        FAIR      46  39  76 SW3       29.89F
GROTON         CLEAR     45  43  93 SW3       29.89F
WILLIMANTIC    CLEAR     47  39  74 S3        29.89F

 IN RI

CITY           SKY/WX    TMP DP  RH WIND       PRES   REMARKS
PROVIDENCE     PTCLDY    45  39  79 S5        29.89F
BLOCK ISLAND   CLEAR     46  39  76 SW9       29.89F
WESTERLY       CLEAR     46  42  86 CALM      29.90F

 IN MA

CITY           SKY/WX    TMP DP  RH WIND       PRES   REMARKS
BOSTON         CLEAR     51  38  60 SW12      29.85F
WORCESTER      CLEAR     50  34  54 W16       29.84F
WESTFIELD      CLEAR     50  37  61 S6        29.85F
PROVINCETOWN   PTCLDY    46  43  87 MISG      29.88S
NANTUCKET      CLEAR     46  42  86 S5        29.89F
$$

ANZ330-335-338-340-345-350-353-355-220500-
COASTAL MARINE OBSERVATIONS


STATION/POSITION TIME  SKY/WX   TEMP    WIND        PRES    VSBY  WAVE
                                AIR SEA DIR/SP/G                  HT/PER
                 (UTC)          (F)     (DEG/KT/KT) (MB)    (MI)  (FT/S)
NY HARB ENTRANCE 0400            46 45  VRB  8/  8  1012.1
4S FIRE IS       0300               46                N/A           4/ 9
23SW MTP         0400            45 43  210/  6/  6 1012.2          4/ 9
HUDSON CANYON    0300            46 45   80/  4/  6 1013.0          5/ 9
EXECUTION ROCKS  0400            48 45  210/  4/  6   N/A
WESTERN LI SOUND 0400            49     230/  2/  4   N/A           0
CENTRAL LI SOUND 0400            46 44  190/  2/  4   N/A           0
EASTERN LI SOUND NOT AVBL
ROBBINS REEF     0400            50     170/  7/  9   N/A
$$


>>>>>>>>>>>>>>>>>>>>>>>>>>>> KEY <<<<<<<<<<<<<<<<<<<<<<<<<<<
>                                                          <
>     SKY/WX - SKY CONDITION/PRESENT WEATHER               <
>     TMP    - TEMPERATURE IN FAHRENHEIT                   <
>     DP     - DEWPOINT IN FAHRENHEIT                      <
>     RH     - RELATIVE HUMIDITY IN PERCENT                <
>     WIND   - DIRECTION AND SPEED IN MPH                  <
>     PRES   - MEAN SEA LEVEL PRESSURE IN INCHES OF HG     <
>     WCI    - WIND CHILL INDEX                            <
>     VSB    - VISIBILITY IN MILES                         <
>     HX     - HEAT INDEX                                  <
>     TC     - TEMPERATURE IN CELSIUS                      <
>     VRB    - VARIABLE WIND DIRECTION                     <
>                                                          <
>>>>>>>>>>>>>>>>>>>>>>>>>>>> KEY <<<<<<<<<<<<<<<<<<<<<<<<<<<





USA.gov is the U.S. government's official web portal to all federal, state and local government web resources and services.